GSAT 19

导读 | 豆包AI

GSAT 19是印度空间研究组织(ISRO)研制的高通量通信卫星,于2017年6月5日由GSLV Mark III火箭发射,是印度当时发射的最重航天器,标志印度航天进入新阶段。卫星配备先进通信载荷,通信能力相当于6-7枚印度传统通信卫星,首次采用国产锂电池供电,设计在轨寿命15年,主要为印度本土及周边区域提供高速通信服务。

基本信息
目录编号:
42747
目录名称:
GSAT 19
国际标识:
2017-031A
轨道中心:
EARTH
卫星名称:
GSAT 19
卫星全名:
--
卫星状态:
在轨 (已飞行3252 天)
发射日期:
2017-06-05 UTC
国别 :
印度 (IN)
星等 :
--
轨道信息
数据来源 国际轨道数据 AOE轨道数据
星历时间 2026-05-01T06:10:50+0800
9小时前
查看轨道信息
2026-05-01T05:00:00+0800
10小时前
查看轨道信息
半长轴 42164.504km 42164.532km
偏心率 0.0007222 0.0007228
轨道倾角 0.014° 0.015°
近地点辐角 186.329° 191.539°
升交点赤经 228.017° 223.148°
平近点角 185.107° 167.007°
近地点 35755.915km 35755.918km
远地点 35816.819km 35816.872km
周期 1436.085分钟 1436.087分钟
每日圈数 1.002726 1.002725
详细信息
使用方式:
暂无
2D轨道图
3D轨道图
轨道高度分析图
轨道倾角分析图
轨道综合分析图
查看轨道综合分析图